Regional Weather Roundup
Issued by NWS

Home | Current Version | Previous Version | Graphics & Text | Print | Product List | Glossary On
Versions: 1 2 3 4 5 6 7 8 9 10 11 12 13 14 15 16 17 18 19 20 21 22 23 24 25 26 27 28 29 30 31 32 33 34 35 36 37 38 39 40 41 42 43 44 45 46 47 48 49 50
316
ASUS43 KOAX 180810
RWRNE

WEATHER ROUNDUP FOR NEBRASKA
NATIONAL WEATHER SERVICE OMAHA NE
200 AM CST WED JAN 18 2017

NOTES: SATELLITE DATA IS BEING USED TO AUGMENT CLOUD COVER ABOVE
       12000 FEET.
       "FAIR" INDICATES FEW OR NO CLOUDS BELOW 12,000 FEET WITH NO
       SIGNIFICANT WEATHER AND/OR OBSTRUCTIONS TO VISIBILITY.

  * THESE STATIONS DO NOT REPORT WEATHER SUCH AS RAIN...SNOW OR FOG.

NEZ001>004-019>022-054>056-180900-
NEBRASKA PANHANDLE

CITY           SKY/WX    TMP DP  RH WIND       PRES   REMARKS
SCOTTSBLUFF    CLOUDY    24  15  68 NW3       29.96F
ALLIANCE       CLOUDY    21  13  71 W6        29.93F WCI  13
CHADRON        CLOUDY    22  14  71 SW9       29.92S WCI  12
KIMBALL        CLOUDY    25  19  80 W9        29.97S WCI  15
SIDNEY         CLOUDY    21  18  88 SW9       29.98S WCI  11
$$

NEZ057>060-069>072-079>082-180900-
SOUTHWEST NEBRASKA

CITY           SKY/WX    TMP DP  RH WIND       PRES   REMARKS
NORTH PLATTE   CLOUDY    28  25  88 NW8       30.00F WCI  20
IMPERIAL       CLOUDY    30  26  85 SW10      30.00F WCI  21
LEXINGTON      CLOUDY    32  28  82 SW5       30.02F WCI  28
MCCOOK         CLOUDY    27  26  96 SW7       30.04S WCI  19
OGALLALA       CLOUDY    22  20  91 W5        30.01F WCI  16
$$

NEZ005>010-023>029-035>040-094-180900-
NORTH CENTRAL NEBRASKA

CITY           SKY/WX    TMP DP  RH WIND       PRES   REMARKS
VALENTINE      CLOUDY    25  18  74 W8        29.90S WCI  16
AINSWORTH      CLOUDY    31  27  82 SW13      29.90F WCI  22
BROKEN BOW     CLOUDY    33  28  81 W7        29.99F WCI  27
O`NEILL        CLOUDY    32  28  86 SW12      29.94F WCI  23
ORD            CLOUDY    32  25  75 SW9       29.99S WCI  24
THEDFORD       CLOUDY    32  28  86 SW14      29.95F WCI  22
$$

NEZ041-046>049-061>064-073>077-083>087-180900-
SOUTH CENTRAL NEBRASKA

CITY           SKY/WX    TMP DP  RH WIND       PRES   REMARKS
GRAND ISLAND   CLOUDY    34  29  82 SW14      30.03F WCI  25
AURORA         CLOUDY    32  29  90 SW9       30.05S WCI  24
HASTINGS       CLOUDY    34  27  75 SW7       30.05F WCI  28
HEBRON         CLOUDY    31  28  90 SW5       30.09F WCI  26
HOLDREGE       CLOUDY    32  27  81 SW9       30.04S WCI  24
KEARNEY *      CLEAR     32  25  74 SW9       30.03F WCI  24
YORK           CLOUDY    32  30  93 SW8       30.06S WCI  25
$$

NEZ011>018-030>034-042>045-180900-
NORTHEAST NEBRASKA

CITY           SKY/WX    TMP DP  RH WIND       PRES   REMARKS
NORFOLK        CLOUDY    31  27  85 S15       30.00S WCI  20
ALBION         CLOUDY    31  26  82 SW3       30.02S
BLAIR          CLEAR     29  28  96 S5        30.07F FOG     WCI  24
FREMONT        CLOUDY    32  31  96 S5        30.07S WCI  27
TEKAMAH        CLOUDY    30  28  92 S9        30.07F WCI  22
WAYNE          CLOUDY    31  29  94 SW10      30.01S WCI  22
$$

NEZ050>053-065>068-078-088>093-180900-
SOUTHEAST NEBRASKA

CITY           SKY/WX    TMP DP  RH WIND       PRES   REMARKS
LINCOLN        CLEAR     28  26  92 S5        30.10S WCI  23
OMAHA EPPLEY   CLEAR     26  21  81 SE9       30.10F WCI  17
BEATRICE       CLOUDY    29  28  94 CALM      30.10S
FALLS CITY     CLOUDY    27  26  96 S6        30.13F WCI  20
NEBRASKA CITY  CLOUDY    31  30  96 SW9       30.10F WCI  23
PLATTSMOUTH    CLOUDY    31  27  85 SW6       30.09S WCI  25
$$

NEZ044-045-051>053-067-180900-
OMAHA AREA

CITY           SKY/WX    TMP DP  RH WIND       PRES   REMARKS
OMAHA EPPLEY   CLEAR     26  21  81 SE9       30.10F WCI  17
BLAIR          CLEAR     29  28  96 S5        30.07F FOG     WCI  24
FREMONT        CLOUDY    32  31  96 S5        30.07S WCI  27
MILLARD        CLEAR     28  27  95 CALM      30.09F FOG
OFFUTT AFB     CLEAR     22  22 100 NE3       30.08F
PLATTSMOUTH    CLOUDY    31  27  85 SW6       30.09S WCI  25
WAHOO          FAIR      30  28  92 S5        30.07F WCI  26
$$




USA.gov is the U.S. government's official web portal to all federal, state and local government web resources and services.